Location: Hoyos del Collado
(40.3594°N, 5.2003°W)
Time: 05:51:26
(UTC+00:00)

IRS-1C Rocket - Visible Passes

Search period start: 13 July 2024 00:00
Search period end: 23 July 2024 00:00
Orbit: 800 x 805 km, 98.8° (Epoch: 12 July)

Date Brightness Start Highest point End Pass type
(mag) Time Alt. Az. Time Alt. Az. Time Alt. Az.
13 Jul 4.5 20:49:41 12° SE 20:54:18 49° ENE 20:59:22 10° N visible
13 Jul 6.1 22:30:40 11° SW 22:34:16 20° W 22:38:05 10° NW visible
14 Jul 5.2 20:24:09 10° SE 20:28:36 29° ENE 20:33:05 10° N visible
14 Jul 5.3 22:04:29 16° SSW 22:08:10 35° W 22:12:58 10° NNW visible
15 Jul 4.5 21:38:19 18° S 21:42:11 61° WSW 21:47:25 10° NNW visible
16 Jul 4.1 21:12:08 17° SSE 21:16:18 78° ENE 21:21:35 10° N visible
16 Jul 6.5 22:54:31 10° WSW 22:56:34 12° W 22:58:37 10° WNW visible
17 Jul 4.6 20:45:58 12° SE 20:50:31 45° ENE 20:55:31 10° N visible
17 Jul 6.0 22:26:57 12° SW 22:30:23 22° W 22:34:26 10° NW visible
18 Jul 5.3 20:20:30 10° ESE 20:24:49 27° ENE 20:29:10 10° N visible
18 Jul 5.2 22:00:48 17° SSW 22:04:20 38° W 22:09:14 10° NNW visible
19 Jul 4.3 21:34:37 19° S 21:38:21 67° WSW 21:43:37 10° NNW visible
20 Jul 4.1 21:08:28 17° SSE 21:12:29 71° ENE 21:17:44 10° N visible
20 Jul 6.5 22:50:09 10° WSW 22:52:42 13° W 22:55:15 10° WNW visible
21 Jul 4.7 20:42:18 12° SE 20:46:43 41° ENE 20:51:38 10° N visible
21 Jul 5.9 22:23:17 14° SW 22:26:32 24° W 22:30:45 10° NW visible
22 Jul 5.4 20:16:50 10° ESE 20:21:02 25° ENE 20:25:15 10° NNE visible
22 Jul 5.1 21:57:06 19° SSW 22:00:29 41° W 22:05:28 10° NNW visible
